User: anonymous   Login
Location: Unspecified
(0.0000°N, 0.0000°E)
Time: 04:24:47
(UTC+00:00)
Language:

Oscar 16 - Orbit

View from above orbital plane
View from above orbital plane
View from above satellite
View from above satellite

Ground track
Ground track

The orbit data is extracted from the following two-line orbital elements,

1 20439U 90005D   21342.84660479  .00000030  00000-0  27704-4 0  9995
2 20439  98.8198 310.8915 0011443  35.5338  21.2644 14.32852283665622
Epoch (UTC): 08 December 2021 20:19:06
Eccentricity: 0.0011443
inclination: 98.8198°
perigee height: 774 km
apogee height: 790 km
right ascension of ascending node: 310.8915°
argument of perigee: 35.5338°
revolutions per day: 14.32852283
mean anomaly at epoch: 21.2644°
orbit number at epoch: 66562

The dashed part of the orbit path shows where the satellite is in the earth's shadow,  

DLR